Wind_Speed
23 23 23 21 20 19 17 15 12 11 9 8 6 5 5 7 8 4 3 3 5 9 10 12 9 19 10 3 2 4 4 2 4 7 5 6 5 2 3 5 3 3 5 13 18
25 25 24 21 20 19 17 15 13 12 10 8 7 6 4 6 6 5 6 8 10 10 6 9 7 14 4 3 3 4 3 5 2 1 7 5 6 6 4 4 3 5 9 19 20
26 24 25 23 21 19 17 16 13 11 10 8 7 5 3 1 2 2 1 4 7 8 6 3 6 3 3 3 2 1 4 3 4 5 3 6 4 1 7 3 5 10 9 8 11
27 25 25 24 23 20 19 17 15 12 10 8 6 4 3 3 5 1 1 5 4 3 6 3 2 1 2 2 3 1 2 3 2 5 4 3 3 4 4 5 5 8 7 6 4
32 28 25 24 23 22 19 18 16 14 11 8 6 5 4 2 3 2 1 6 4 2 5 4 4 2 2 2 3 2 3 5 3 7 5 4 3 1 3 4 3 5 7 6 2
31 32 28 25 25 23 21 18 17 15 12 9 7 7 1 4 2 3 0 4 3 2 4 5 2 3 3 2 4 2 4 3 3 3 3 3 4 5 4 6 6 2 5 3 4
33 33 32 28 25 24 23 21 18 15 14 11 8 5 1 5 2 2 3 1 1 5 3 3 3 2 2 2 1 3 3 5 1 2 2 5 6 8 8 7 7 5 3 4 8
35 34 31 31 29 25 24 21 19 17 14 12 9 3 4 5 5 1 5 1 1 3 5 2 4 2 2 1 4 3 3 1 4 8 3 8 7 6 10 10 10 7 6 6 7
35 35 33 32 31 27 26 23 20 17 13 11 7 3 4 3 4 8 5 2 2 3 4 2 3 2 3 5 3 0 3 5 4 7 5 5 5 5 4 5 7 6 6 6 5
34 35 34 34 33 29 27 24 18 14 13 11 2 1 4 4 6 8 10 2 2 3 2 2 3 3 1 3 5 5 4 4 6 5 4 4 8 9 7 6 8 7 8 8 6
35 35 34 35 38 35 32 24 10 2 7 5 6 3 4 9 7 3 9 3 1 3 3 2 3 5 6 5 5 4 1 5 2 1 2 5 7 9 11 7 9 9 8 7 7
17 33 32 36 40 40 38 9 9 9 5 3 2 2 3 6 4 4 8 5 4 5 3 3 4 6 8 7 6 2 1 2 2 5 3 6 12 12 13 12 10 11 9 8 6
31 26 35 36 42 42 35 22 23 14 5 4 5 5 4 6 6 8 8 4 4 6 7 6 4 12 5 3 5 3 4 2 1 3 2 3 9 5 7 16 13 7 5 2 14
28 28 37 36 37 38 30 27 27 6 4 6 9 6 6 3 2 10 18 6 5 10 7 5 5 7 4 4 4 2 4 4 1 3 3 4 5 6 5 4 6 7 8 10 11
30 36 37 42 22 30 30 25 28 10 5 8 8 10 9 9 9 4 17 1 7 7 6 7 7 5 7 4 6 3 1 7 3 2 3 3 2 7 5 6 5 7 9 8 8
34 36 35 43 21 38 38 31 20 6 8 5 6 12 12 7 4 4 4 0 2 2 2 3 3 5 6 3 5 4 3 4 3 3 2 9 7 5 3 5 4 6 7 9 9
31 39 36 45 15 48 46 16 6 6 1 8 7 11 17 10 9 7 11 10 7 6 7 3 3 1 2 5 2 5 4 2 1 2 5 2 4 7 4 3 7 10 8 8 8
34 37 43 41 43 57 33 9 9 4 7 4 8 12 12 14 7 10 14 11 9 3 8 6 3 7 5 6 6 7 6 4 6 4 3 1 5 5 5 2 7 9 10 9 9
33 31 41 38 58 47 14 10 8 7 8 10 11 13 5 12 6 10 14 14 13 9 5 5 5 2 3 3 7 6 9 3 3 1 2 4 5 7 6 5 7 12 9 8 8
30 28 24 58 55 35 12 10 6 7 13 16 6 6 11 12 6 13 14 12 7 9 2 3 3 1 2 3 2 3 4 1 2 3 4 4 3 5 6 6 6 7 7 7 6
26 7 22 50 45 14 10 5 5 6 17 5 6 7 7 10 8 9 14 6 13 12 5 2 4 2 5 6 11 4 3 4 3 3 4 0 4 4 4 6 8 7 8 8 8
2 3 22 47 10 4 8 10 4 13 2 4 5 5 10 16 5 7 6 2 15 14 12 5 3 4 4 2 3 6 4 4 3 3 3 3 5 6 6 7 8 7 7 7 8
4 3 2 33 6 7 7 5 5 10 5 6 5 4 5 10 5 5 6 4 7 12 13 7 4 2 2 3 4 6 7 5 3 2 5 4 4 4 7 5 4 5 4 4 6
3 4 3 4 1 10 16 9 7 6 4 5 5 6 8 12 3 8 4 1 2 7 9 7 3 4 7 3 5 7 11 11 9 4 7 10 7 13 12 2 4 5 4 9 10
3 2 1 4 5 13 6 8 16 5 3 4 3 5 9 5 3 6 5 4 4 6 5 8 3 8 2 3 2 3 6 8 9 7 8 2 8 7 8 11 11 7 6 8 9
3 3 2 3 11 15 8 11 22 6 8 5 8 6 4 8 7 8 7 4 5 2 5 1 2 3 3 5 4 4 6 4 4 5 6 9 15 9 10 6 8 11 11 12 9
3 4 3 3 5 7 4 11 12 11 2 6 11 6 6 5 6 4 5 6 9 7 6 6 5 3 5 2 3 6 8 10 8 6 6 10 15 10 12 12 8 9 9 10 11
Wind_Direction
224 226 222 221 220 220 221 220 220 224 229 237 246 265 295 310 312 319 258 254 302 314 326 336 354 358 328 297 336 25 67 244 256 168 194 176 131 49 110 123 81 92 119 146 152
221 220 221 218 217 218 217 220 219 223 231 238 249 262 288 318 317 259 252 265 280 293 321 8 349 346 347 297 338 91 125 220 310 307 169 137 111 138 96 116 76 86 121 152 163
223 218 218 214 212 213 214 216 216 221 227 236 244 254 263 358 311 197 113 307 293 280 250 303 314 321 315 319 294 254 190 291 349 30 40 130 100 151 121 217 195 181 175 159 168
224 217 217 214 210 212 210 213 209 210 217 223 227 229 185 122 216 95 63 353 341 241 189 203 257 282 215 241 260 252 337 64 358 14 40 40 114 123 125 164 145 137 152 139 82
229 220 214 214 214 208 208 208 203 197 199 207 204 192 156 118 250 344 355 28 16 140 200 201 183 191 226 253 115 97 309 68 85 44 68 31 50 115 271 267 5 134 120 126 110
230 223 216 212 211 208 204 205 201 189 184 193 193 176 251 187 139 255 13 32 43 283 230 220 206 219 254 254 137 29 255 146 92 51 50 45 310 33 280 282 296 287 166 177 204
228 224 217 212 210 209 207 200 198 193 182 178 179 149 70 217 171 306 145 60 43 347 265 243 19 75 327 75 86 42 31 345 187 136 351 103 295 237 244 266 260 239 204 273 256
224 223 213 210 208 207 204 200 196 193 186 177 164 152 231 205 186 128 147 133 40 30 36 99 19 13 47 136 36 84 37 189 272 168 191 96 264 280 270 210 233 248 246 279 267
218 221 218 216 206 204 198 191 187 186 183 168 157 182 257 169 194 214 152 188 158 67 69 98 10 161 37 109 53 310 190 214 291 169 147 143 255 271 66 167 230 243 255 260 296
225 219 216 213 203 196 185 177 168 166 173 162 151 223 224 188 147 168 189 217 124 135 70 50 43 101 106 124 191 190 215 232 199 238 165 205 246 282 292 260 238 235 245 251 270
221 213 216 208 199 184 169 142 124 133 178 166 197 253 110 124 125 156 168 138 38 173 129 216 116 196 220 210 166 101 163 231 130 229 122 247 263 254 275 253 243 241 240 238 240
249 220 213 205 195 180 167 174 172 164 158 220 62 219 131 167 110 149 162 142 171 173 164 138 233 225 217 231 251 220 6 278 58 166 145 279 271 255 243 243 227 231 229 226 114
239 229 213 205 190 176 178 185 170 139 113 179 190 175 199 187 148 177 155 178 180 158 194 157 223 205 208 179 179 188 194 258 66 357 311 328 293 298 258 237 238 227 211 151 138
235 233 213 203 179 176 186 187 180 152 100 185 191 223 160 173 212 159 185 161 191 191 183 221 250 170 196 175 134 199 235 237 13 63 231 91 286 306 276 201 182 167 115 111 111
229 223 213 202 175 181 176 173 166 76 193 196 165 171 150 169 137 195 186 356 184 176 152 210 180 177 166 174 161 242 143 177 153 210 354 259 196 273 239 243 193 124 122 119 116
222 221 215 206 190 173 166 160 118 141 223 160 140 165 155 172 166 107 131 159 142 181 126 178 282 148 154 145 173 144 78 63 71 90 293 214 173 267 240 198 113 120 131 117 110
226 222 218 202 180 161 156 127 160 199 227 171 161 169 174 171 147 169 173 177 161 158 180 136 175 97 111 116 110 127 119 136 231 226 230 335 168 248 250 135 150 155 144 137 128
225 229 216 188 160 154 153 152 202 138 178 201 143 158 177 156 174 175 160 182 232 246 138 160 189 173 179 169 170 179 176 170 199 205 260 294 229 253 217 163 120 145 135 134 134
222 224 184 170 160 153 151 194 170 162 165 138 108 168 169 183 137 170 182 198 194 195 151 148 197 87 141 132 135 186 216 215 102 11 80 224 290 320 280 98 110 127 134 146 150
207 206 172 157 156 154 166 179 180 160 138 140 126 174 175 179 150 181 168 193 194 191 236 161 108 318 150 107 171 165 166 146 355 169 237 280 237 231 327 209 141 144 153 168 167
209 175 147 154 154 162 177 150 177 188 139 130 147 137 163 172 170 190 178 189 182 189 148 162 113 181 128 202 190 153 215 226 151 163 177 225 261 217 101 102 159 171 178 174 177
113 133 179 153 164 148 156 149 180 153 128 115 118 113 161 165 163 176 174 196 191 172 180 215 118 158 169 349 205 226 207 202 143 232 229 157 261 220 140 121 121 150 167 184 190
121 123 172 165 152 145 135 149 129 143 142 150 137 146 155 154 147 163 166 168 131 173 174 168 147 110 64 355 329 237 220 232 270 73 205 171 270 336 97 99 109 148 189 187 195
101 123 44 147 162 134 136 144 113 93 103 94 108 112 119 152 102 175 121 79 133 167 117 104 158 190 206 204 152 189 206 218 212 208 240 233 283 294 303 345 332 336 189 203 211
34 74 66 125 132 139 108 133 144 130 105 123 60 142 142 126 102 130 120 129 50 122 113 141 151 185 195 148 118 176 195 199 213 223 240 220 261 252 279 288 288 275 270 236 232
104 120 100 82 121 130 116 158 158 139 138 177 137 154 115 147 166 157 131 147 164 98 127 130 199 114 328 155 179 223 233 219 214 235 254 242 260 255 260 276 254 263 270 275 257
72 28 64 53 131 131 141 149 163 127 6 156 145 127 108 144 107 78 92 115 146 145 158 147 128 94 245 348 51 318 206 215 228 215 215 250 258 268 263 255 259 265 263 254 262
Height
791 795 799 802 805 808 811 813 814 817 819 820 820 820 820 819 820 820 820 819 819 818 818 816 813 811 809 808 805 806 834 840 822 827 821 810 813 809 809 816 815 816 820 823 826
787 791 795 799 802 805 808 811 813 815 817 818 819 818 818 818 818 818 819 817 817 818 818 817 816 814 815 811 810 820 839 825 813 813 816 811 811 813 817 820 821 823 822 823 825
785 787 792 795 799 803 806 809 811 813 815 817 817 817 817 817 819 816 816 817 816 816 818 818 818 817 818 814 813 816 831 814 816 809 808 810 814 811 821 827 820 823 822 823 825
781 784 788 792 796 800 803 807 809 811 814 816 817 817 816 817 826 815 815 815 814 814 816 816 817 820 821 822 813 821 813 814 814 813 810 814 811 815 816 819 815 817 819 821 822
777 781 785 789 792 797 801 805 808 809 812 815 816 817 817 818 817 816 815 814 814 814 814 815 818 819 823 818 816 821 817 816 816 816 818 815 819 818 817 813 815 815 817 819 821
772 777 781 785 790 794 798 803 807 807 810 814 816 817 818 820 815 815 814 814 814 814 814 815 815 816 818 818 820 819 819 818 816 816 818 822 822 822 815 811 813 817 818 819 820
767 772 776 782 787 791 796 801 805 807 809 813 816 817 818 816 814 814 814 815 814 814 814 814 814 815 816 818 815 818 826 823 821 819 822 822 830 825 817 815 816 816 817 818 819
761 767 771 777 784 789 794 800 803 806 809 813 815 818 817 813 813 814 814 814 815 813 814 813 814 815 817 816 820 827 829 842 824 822 823 827 841 819 814 816 818 818 819 818 818
755 761 766 773 779 786 792 797 802 806 809 813 816 818 816 810 812 814 813 815 816 814 815 815 816 819 820 830 838 835 848 844 830 821 824 829 836 820 810 814 818 819 818 817 816
748 755 761 768 775 783 789 796 801 806 811 814 816 820 814 808 809 811 813 815 815 817 816 817 821 828 830 836 847 840 841 835 836 826 825 830 832 823 818 816 816 817 816 815 814
740 748 756 763 770 777 786 795 802 809 807 806 809 809 806 805 809 811 812 814 815 820 822 820 830 836 831 827 822 825 830 833 827 823 825 830 830 827 819 819 820 817 815 813 812
736 741 750 758 765 770 779 782 783 787 804 803 805 806 807 806 808 812 814 818 819 823 820 826 833 826 823 824 825 823 829 829 823 826 826 830 826 818 812 808 805 807 808 808 812
731 736 745 753 761 768 772 776 784 785 799 803 803 804 807 807 804 810 813 815 819 821 823 826 820 816 821 822 827 827 832 831 831 827 825 830 832 814 800 797 798 799 799 802 809
727 732 739 748 758 761 770 778 782 785 807 801 801 798 802 802 804 803 808 812 818 821 820 822 813 818 821 824 825 834 825 827 829 838 848 832 850 819 801 796 795 796 806 810 813
720 726 733 742 740 752 763 774 779 786 805 788 790 788 793 800 800 805 806 810 815 814 816 819 816 817 823 823 824 830 822 828 830 838 842 838 850 823 805 800 798 803 809 813 815
713 719 726 734 738 747 758 769 775 799 792 787 781 784 793 795 799 804 807 809 807 811 811 817 815 813 816 818 821 823 828 829 833 844 873 837 839 827 808 794 795 807 810 813 818
706 711 720 727 729 737 751 765 783 769 781 782 778 779 785 789 798 800 805 807 809 819 820 820 819 817 814 822 822 826 837 854 855 858 846 823 834 818 796 790 794 803 811 815 818
697 704 708 715 723 730 746 762 756 772 779 776 772 778 782 785 793 797 801 804 804 805 812 818 827 819 815 817 823 829 833 852 851 850 839 828 827 807 792 791 790 796 805 813 817
692 694 698 701 714 725 740 742 740 763 763 765 775 782 787 782 786 793 794 798 795 799 805 813 814 813 813 810 817 828 830 826 839 868 851 834 815 799 791 802 801 805 811 816 818
686 682 685 696 706 719 735 735 746 741 745 751 776 777 782 784 788 784 792 791 793 792 792 799 820 815 815 812 814 819 822 838 854 865 856 831 818 815 802 797 804 810 814 816 818
682 671 680 693 704 716 723 735 743 736 732 746 763 773 777 777 785 785 784 785 783 788 793 796 805 822 814 815 813 821 824 823 825 841 838 842 821 801 802 799 802 807 809 813 816
675 681 683 689 701 715 721 731 728 729 735 740 748 755 762 769 781 781 780 777 777 780 794 796 802 820 812 815 809 811 817 819 840 833 841 835 829 796 797 798 799 803 804 810 811
674 678 681 684 692 707 719 722 722 733 738 741 745 744 753 766 783 777 776 775 776 780 785 794 811 830 829 827 820 815 812 813 816 823 822 832 823 797 799 798 800 803 806 810 812
666 673 684 688 698 701 709 722 731 730 735 737 744 744 755 765 766 778 781 781 780 781 788 792 810 806 803 805 807 815 809 811 814 839 816 812 816 802 798 801 801 805 804 808 806
669 680 685 688 700 698 704 723 722 738 732 736 745 746 753 778 771 774 780 783 784 786 788 798 809 802 799 799 799 803 806 810 814 813 816 812 814 808 804 803 802 800 799 799 800
672 678 686 694 698 699 705 717 718 735 735 743 747 747 747 758 761 770 773 776 780 788 788 793 807 800 820 803 803 808 809 808 810 809 813 812 807 801 797 800 799 795 794 792 793
675 677 679 697 701 702 711 717 719 723 731 734 739 747 751 754 759 763 764 770 772 784 790 793 810 833 844 816 819 840 823 809 804 802 803 808 796 795 794 791 793 792 791 789 786